Location: Pcim
(49.7500°N, 19.9670°E)
Time: 09:42:15
(UTC+02:00)

EO-79 - Pass Details

Date: 27 April 2024
Orbit: 563 x 574 km, 98.0° (Epoch: 20 May)

Event Time Altitude Azimuth Distance (km) Brightness Sun altitude
Rises 03:11:08 0° 22° (NNE) 2,802 ? -17.9°
Reaches altitude 10° 03:13:31 10° 34° (NE) 1,900 ? -17.7°
Maximum altitude 03:17:09 29° 96° (E) 1,066 ? -17.3°
Drops below altitude 10° 03:20:45 10° 157° (SSE) 1,887 ? -16.9°
Enters shadow 03:20:50 10° 158° (SSE) 1,917 ? -16.9°
